Wind_Speed
2 2 3 4 4 6 8 12 14 16 16 18 19 21 23 27 31 32 34 36 38 40 40 39 40 41 40 40 38 38 39 39 40 41 40 41 42 43 43 43 43 41 40 40
2 2 3 4 5 5 7 11 12 14 14 15 18 19 20 23 28 30 33 34 35 37 39 39 38 40 40 41 39 37 37 39 40 40 40 41 43 44 44 43 42 42 42 42
3 3 4 5 6 6 7 10 10 11 13 13 15 17 18 21 26 30 31 31 32 35 37 38 38 39 38 39 39 38 39 39 41 40 41 42 43 44 44 44 44 44 43 43
5 5 5 6 6 6 6 7 9 10 11 12 14 14 16 18 22 26 28 28 30 33 36 37 39 39 39 39 39 39 39 40 41 40 39 41 44 45 45 46 47 46 45 44
7 6 7 7 7 5 5 6 8 9 10 11 12 12 13 15 18 22 25 26 27 31 34 36 37 38 38 37 37 37 38 39 40 40 40 41 43 44 45 46 47 47 46 46
8 8 8 8 7 5 6 6 7 7 9 9 10 11 11 12 16 19 22 25 25 28 32 34 36 37 37 38 37 38 37 38 39 40 41 41 42 44 45 46 46 47 47 47
9 8 8 7 6 5 5 5 5 7 7 7 8 10 11 13 16 18 19 22 24 26 30 32 35 36 37 38 39 40 40 40 40 40 40 41 42 44 46 46 46 47 47 47
9 8 7 6 5 4 4 4 4 5 7 7 7 8 10 12 15 17 18 20 22 23 27 30 32 35 36 38 39 39 40 41 40 39 40 43 44 45 45 46 47 48 48 47
8 7 7 5 5 4 3 3 3 4 6 6 7 7 8 11 13 16 17 19 20 22 25 28 30 31 33 36 38 39 41 41 41 41 41 42 43 45 45 46 48 49 49 48
8 8 6 6 5 4 3 2 2 3 4 5 7 8 8 10 12 13 15 17 20 22 24 26 28 31 33 35 37 40 41 41 42 43 42 42 43 44 45 46 47 47 48 47
8 7 6 4 4 2 3 2 1 1 3 5 6 7 9 10 10 12 15 18 20 22 24 25 27 30 33 36 38 40 41 42 42 43 43 42 42 45 47 47 47 48 48 48
7 6 6 4 3 3 3 2 1 1 1 3 5 6 7 9 10 12 15 18 20 23 25 27 29 31 34 36 38 40 41 42 42 43 44 44 44 44 46 47 47 48 48 47
7 6 6 5 3 3 3 3 3 2 1 2 3 5 7 8 11 14 17 19 21 25 27 29 32 33 35 37 38 40 41 42 42 42 43 45 44 44 44 45 46 47 48 48
6 6 5 4 4 4 3 3 3 3 3 3 4 7 8 9 12 15 18 21 23 26 28 30 31 33 35 36 37 38 40 41 42 43 43 44 44 44 44 45 46 46 46 47
6 6 4 4 4 3 3 4 4 4 4 4 6 8 10 11 13 16 18 21 23 26 28 29 30 31 33 34 35 37 39 40 42 43 43 44 45 45 44 45 45 44 44 44
6 5 4 3 3 3 4 4 6 6 6 6 8 9 12 14 15 17 18 21 23 24 26 28 29 30 31 33 34 36 38 39 40 41 42 43 44 45 44 45 45 44 44 44
6 5 3 2 2 3 4 6 7 8 9 9 9 10 11 13 15 16 18 21 23 24 25 27 28 29 30 32 34 35 37 38 39 40 41 42 43 43 43 43 43 42 43 43
5 4 2 1 1 3 5 7 8 10 11 11 11 12 12 14 16 18 19 21 22 24 25 27 29 29 29 30 31 32 33 35 37 39 40 41 42 42 42 42 42 41 41 41
5 3 2 1 2 3 6 8 10 11 12 13 13 14 15 16 17 19 21 22 24 24 25 26 27 28 29 29 29 29 30 31 34 36 38 39 39 40 40 40 40 40 40 40
6 4 3 2 3 5 7 8 10 12 13 15 15 15 16 17 18 20 22 23 24 25 26 27 27 27 28 28 28 28 28 29 30 32 34 36 37 38 39 39 38 38 38 38
7 5 4 4 4 6 7 9 11 13 14 16 17 17 17 19 20 22 23 24 24 26 27 26 26 26 26 26 27 27 27 28 29 30 31 33 34 35 36 37 37 37 37 36
8 7 6 5 6 7 9 10 12 14 15 17 18 18 19 20 22 24 25 25 25 26 25 25 24 24 25 25 26 26 26 27 28 28 29 29 30 31 32 34 34 35 35 35
10 9 8 7 7 9 10 11 13 15 17 18 19 20 21 22 24 25 25 25 24 24 24 24 23 23 24 25 25 25 25 26 26 27 27 27 28 29 31 32 33 34 34 34
12 11 10 9 10 10 11 12 14 16 18 19 20 21 22 24 25 26 26 25 24 23 23 24 24 24 24 24 25 24 25 25 25 25 26 26 27 28 29 30 31 32 32 32
14 12 11 11 11 11 12 14 15 17 19 20 21 22 23 25 26 27 26 26 25 24 24 24 25 24 24 24 24 25 25 25 24 24 24 25 25 27 28 28 28 29 30 31
15 14 13 12 13 13 14 15 16 18 20 21 22 23 24 25 26 27 27 26 25 25 25 25 25 24 24 25 25 25 25 25 24 24 24 25 25 25 26 26 27 27 28 29
Wind_Direction
159 178 179 160 169 184 187 192 193 195 202 205 205 208 210 212 211 211 212 213 215 215 216 217 219 219 221 223 224 226 229 228 229 231 231 233 235 236 236 238 240 243 245 247
117 128 143 156 159 165 181 182 187 195 200 204 204 207 213 210 209 211 213 216 217 218 220 220 219 221 222 225 227 229 231 230 231 232 233 236 239 238 237 239 241 244 246 249
100 128 129 140 150 159 170 180 187 196 198 200 201 206 211 210 211 212 214 218 221 222 223 224 226 226 226 228 231 234 233 233 234 235 237 237 238 240 241 242 243 245 247 249
116 123 116 122 137 147 162 178 185 190 197 194 199 204 208 211 211 215 218 221 225 224 226 228 229 231 233 233 235 237 237 237 238 239 240 242 242 243 244 245 246 248 249 250
114 117 118 124 132 133 136 153 173 188 194 192 200 204 204 211 213 216 220 224 227 228 230 231 232 234 236 238 240 242 242 244 245 246 248 248 247 247 247 248 249 251 252 253
124 124 128 133 133 126 123 135 161 178 189 201 204 209 207 214 216 220 225 227 231 232 233 235 237 239 241 244 246 246 249 249 250 252 253 253 251 250 250 251 252 253 253 255
134 132 132 137 132 117 120 131 154 175 189 200 207 216 221 225 225 227 232 235 236 238 236 239 241 244 246 248 250 251 253 255 257 258 258 256 256 255 254 252 253 253 253 255
137 141 142 138 133 127 130 140 164 187 202 208 212 218 224 225 229 228 230 234 239 243 242 243 245 246 248 249 251 253 255 257 259 261 262 261 260 259 259 257 256 255 255 255
141 145 148 144 131 126 125 145 178 202 211 218 221 222 220 226 226 229 232 236 242 246 248 249 251 252 251 252 253 255 257 259 260 261 262 263 263 262 261 261 260 258 257 256
139 142 145 143 136 122 108 103 151 202 217 221 219 225 230 231 235 238 239 242 245 248 250 254 255 257 258 258 258 259 260 261 262 263 263 263 262 262 261 262 261 259 258 258
140 144 146 145 141 122 106 104 134 227 236 229 216 226 234 236 241 246 249 249 252 255 255 258 260 261 262 263 262 262 263 263 264 265 263 262 262 261 260 261 262 262 261 260
141 141 142 139 135 115 95 70 25 298 254 230 222 230 237 246 250 253 255 256 259 262 262 262 262 265 265 265 265 266 266 266 265 264 263 262 261 261 261 261 262 262 262 261
141 137 132 126 119 103 75 49 33 3 304 268 248 246 249 258 262 264 265 265 266 267 268 268 267 267 266 266 266 267 267 267 266 265 265 264 262 262 262 262 263 263 263 262
143 132 122 108 88 75 56 26 10 353 326 290 274 268 271 277 276 276 275 275 274 272 272 273 272 270 269 269 269 268 268 267 266 266 266 264 264 264 264 264 264 264 264 263
145 135 124 101 82 67 45 24 13 1 342 310 290 284 282 287 287 287 285 283 282 279 278 277 277 276 274 272 271 270 270 268 266 266 266 266 265 265 265 265 266 265 264 263
148 141 130 109 80 59 36 20 8 357 341 324 309 302 296 294 297 294 293 290 288 287 283 281 279 279 276 273 272 272 271 269 267 265 264 265 266 267 266 267 267 266 264 264
154 149 139 111 63 37 23 8 359 353 342 328 320 313 307 303 306 303 300 297 294 291 287 285 285 284 280 276 275 274 272 270 268 266 265 265 265 267 267 267 268 266 264 264
167 160 156 103 20 15 10 359 354 349 344 339 330 323 315 308 308 308 306 304 299 295 291 289 288 286 284 282 280 278 275 272 271 268 266 266 266 266 266 267 267 265 263 263
194 195 200 231 330 344 343 344 342 342 341 338 332 326 322 317 312 311 310 308 305 301 297 295 294 291 290 288 285 283 280 278 275 272 269 267 267 267 266 266 265 263 260 260
208 219 232 263 300 325 330 333 335 337 338 337 334 329 325 324 319 316 313 310 308 306 303 299 296 294 293 290 288 286 283 281 279 277 274 270 269 269 267 265 264 262 260 259
218 229 246 270 293 311 322 329 331 334 334 335 334 331 327 325 323 319 317 312 311 310 308 305 300 297 296 294 293 290 286 285 283 281 278 274 272 270 268 266 264 262 260 259
224 234 246 264 284 304 316 323 327 328 330 330 331 330 328 325 324 321 319 317 313 313 313 310 307 301 298 299 298 295 290 288 287 285 281 277 274 271 269 265 262 259 258 258
228 236 249 267 284 299 309 316 321 324 326 327 328 328 328 326 323 323 321 319 315 314 315 313 310 305 302 302 301 297 294 293 290 287 284 279 274 272 270 267 263 260 257 257
233 240 251 265 280 292 303 311 317 321 323 325 326 326 327 326 323 321 320 318 316 313 313 312 311 308 307 305 303 301 299 297 293 290 286 282 278 273 270 268 267 263 258 256
236 243 255 267 279 289 300 308 313 318 321 323 325 325 326 327 326 324 321 318 315 312 312 311 310 308 306 304 303 304 302 300 297 294 290 286 284 278 273 268 267 264 259 256
239 247 258 268 278 287 296 304 310 316 320 322 323 326 327 328 327 326 323 321 318 314 312 311 309 307 305 304 303 303 301 300 301 298 295 291 288 284 275 268 266 263 259 257
Height
5650 5651 5650 5650 5651 5652 5653 5655 5658 5661 5663 5666 5669 5673 5677 5680 5685 5691 5697 5703 5710 5716 5722 5728 5733 5738 5744 5750 5755 5760 5764 5767 5771 5774 5777 5780 5783 5786 5789 5792 5794 5796 5798 5799
5652 5652 5651 5651 5652 5653 5654 5656 5659 5661 5664 5667 5669 5673 5676 5679 5684 5689 5695 5700 5705 5711 5717 5722 5726 5733 5738 5743 5748 5753 5757 5761 5764 5767 5770 5773 5776 5778 5781 5783 5785 5787 5789 5791
5652 5653 5652 5653 5653 5654 5656 5657 5660 5662 5665 5667 5670 5673 5676 5679 5682 5687 5692 5697 5702 5707 5712 5717 5721 5727 5732 5737 5742 5746 5750 5753 5756 5759 5762 5764 5767 5769 5772 5774 5776 5778 5780 5782
5653 5653 5654 5654 5655 5656 5657 5659 5660 5663 5665 5668 5671 5674 5676 5678 5681 5686 5690 5695 5699 5703 5707 5712 5717 5722 5726 5730 5734 5738 5742 5745 5748 5750 5753 5756 5758 5761 5763 5765 5767 5769 5771 5772
5654 5654 5655 5656 5657 5657 5658 5659 5661 5663 5666 5669 5671 5673 5676 5677 5680 5684 5688 5691 5695 5699 5703 5707 5711 5716 5720 5724 5727 5731 5734 5737 5740 5742 5745 5747 5749 5752 5754 5756 5758 5760 5762 5763
5655 5656 5656 5657 5658 5659 5660 5661 5662 5664 5666 5669 5671 5673 5675 5677 5679 5682 5686 5689 5692 5695 5699 5702 5706 5710 5714 5718 5721 5724 5726 5729 5732 5734 5736 5738 5740 5742 5743 5745 5747 5749 5751 5752
5656 5657 5658 5658 5659 5660 5661 5662 5663 5665 5666 5669 5671 5672 5674 5675 5678 5680 5683 5686 5689 5692 5695 5698 5701 5704 5708 5711 5714 5716 5718 5720 5722 5724 5726 5727 5729 5730 5732 5734 5735 5737 5739 5741
5656 5658 5659 5659 5660 5660 5661 5662 5664 5665 5666 5668 5669 5671 5673 5674 5676 5678 5681 5683 5686 5688 5690 5693 5696 5698 5701 5703 5706 5708 5710 5711 5713 5714 5715 5716 5717 5718 5720 5722 5723 5725 5727 5729
5656 5658 5659 5660 5660 5661 5661 5662 5663 5664 5665 5667 5668 5670 5671 5672 5674 5676 5678 5680 5682 5684 5686 5688 5690 5692 5694 5696 5698 5699 5700 5702 5703 5704 5704 5704 5705 5706 5707 5709 5710 5712 5714 5716
5657 5658 5659 5660 5660 5661 5662 5661 5662 5663 5664 5665 5666 5668 5669 5670 5671 5673 5675 5677 5679 5680 5682 5683 5684 5685 5687 5688 5689 5690 5691 5691 5692 5692 5692 5693 5694 5695 5696 5697 5698 5700 5702 5703
5656 5658 5659 5660 5660 5661 5661 5661 5661 5661 5662 5663 5664 5668 5667 5668 5669 5670 5672 5672 5674 5675 5676 5677 5678 5678 5679 5680 5680 5680 5681 5681 5681 5681 5681 5682 5682 5683 5684 5685 5686 5687 5689 5691
5656 5658 5658 5659 5660 5660 5660 5660 5660 5661 5661 5661 5662 5667 5664 5665 5666 5667 5667 5668 5669 5669 5669 5670 5670 5670 5670 5670 5670 5670 5670 5670 5670 5670 5670 5671 5671 5672 5672 5673 5674 5675 5676 5678
5656 5657 5658 5659 5661 5660 5659 5659 5659 5659 5659 5659 5660 5664 5661 5662 5662 5663 5663 5663 5663 5662 5662 5661 5661 5660 5660 5660 5659 5659 5659 5659 5659 5658 5659 5658 5658 5659 5660 5661 5661 5663 5664 5666
5656 5657 5659 5659 5659 5658 5658 5658 5657 5657 5657 5657 5658 5658 5658 5658 5658 5658 5658 5657 5656 5655 5653 5652 5651 5650 5649 5648 5648 5648 5647 5647 5647 5647 5646 5646 5646 5647 5648 5648 5649 5650 5652 5653
5655 5656 5657 5658 5658 5657 5657 5657 5656 5656 5655 5655 5655 5654 5654 5654 5653 5653 5651 5650 5648 5647 5645 5643 5642 5640 5639 5638 5637 5636 5636 5635 5635 5634 5634 5634 5634 5635 5635 5636 5636 5638 5639 5641
5654 5656 5656 5657 5657 5656 5656 5655 5655 5654 5653 5652 5652 5651 5650 5649 5648 5646 5644 5642 5640 5638 5636 5635 5633 5631 5629 5628 5627 5626 5625 5623 5622 5622 5622 5622 5622 5622 5622 5623 5624 5625 5627 5629
5653 5654 5655 5656 5656 5656 5656 5655 5653 5652 5651 5650 5649 5648 5646 5645 5643 5641 5638 5636 5633 5631 5629 5627 5624 5622 5620 5618 5616 5615 5613 5612 5610 5610 5610 5610 5610 5610 5610 5611 5611 5613 5614 5616
5652 5653 5654 5654 5655 5655 5657 5653 5652 5650 5649 5647 5645 5643 5642 5640 5638 5635 5633 5630 5627 5624 5621 5619 5616 5613 5610 5608 5606 5604 5602 5600 5599 5598 5597 5598 5598 5598 5599 5599 5600 5601 5603 5605
5650 5651 5652 5653 5653 5653 5653 5651 5649 5648 5646 5644 5641 5639 5637 5635 5632 5630 5626 5623 5619 5616 5613 5610 5607 5604 5601 5598 5596 5593 5591 5590 5588 5586 5585 5585 5586 5586 5587 5587 5588 5589 5591 5593
5648 5649 5651 5651 5651 5651 5652 5649 5647 5646 5644 5641 5638 5636 5633 5630 5628 5625 5620 5616 5613 5609 5605 5602 5599 5596 5593 5590 5587 5585 5582 5580 5579 5577 5576 5575 5575 5575 5575 5576 5577 5578 5580 5581
5645 5647 5648 5648 5648 5648 5648 5646 5645 5644 5643 5638 5634 5632 5629 5625 5622 5619 5614 5610 5606 5602 5597 5593 5590 5587 5585 5582 5579 5576 5574 5572 5570 5568 5566 5565 5565 5564 5564 5565 5566 5567 5568 5570
5643 5644 5644 5645 5645 5648 5645 5643 5642 5641 5637 5634 5631 5628 5624 5621 5617 5613 5608 5604 5599 5595 5591 5586 5583 5580 5577 5575 5571 5568 5566 5564 5561 5559 5558 5556 5555 5555 5554 5554 5555 5556 5557 5559
5639 5641 5642 5643 5645 5643 5641 5639 5638 5636 5633 5630 5627 5623 5620 5616 5612 5607 5602 5597 5593 5589 5585 5581 5577 5574 5571 5568 5565 5562 5559 5556 5554 5552 5550 5548 5546 5546 5545 5545 5545 5546 5547 5549
5636 5636 5638 5638 5639 5638 5636 5635 5633 5631 5628 5625 5622 5619 5615 5611 5606 5602 5597 5592 5587 5583 5579 5575 5572 5568 5565 5562 5558 5555 5552 5549 5547 5544 5542 5540 5539 5538 5537 5536 5536 5536 5537 5539
5631 5632 5633 5633 5634 5633 5632 5630 5628 5626 5624 5620 5617 5613 5609 5605 5601 5596 5591 5586 5581 5577 5573 5569 5566 5562 5559 5556 5553 5549 5546 5543 5540 5537 5535 5533 5531 5529 5528 5527 5527 5527 5529 5530
5627 5628 5629 5629 5629 5628 5627 5626 5624 5621 5618 5615 5611 5608 5604 5599 5595 5590 5585 5580 5575 5571 5567 5563 5559 5556 5553 5549 5546 5543 5540 5537 5534 5531 5529 5526 5524 5521 5519 5519 5519 5519 5520 5521